Regional Weather Roundup
Issued by NWS

Home | Current Version | Previous Version | Text Only | Print | Product List | Glossary On
Versions: 1 2 3 4 5 6 7 8 9 10 11 12 13 14 15 16 17 18 19 20 21 22 23 24 25 26 27 28 29 30 31 32 33 34 35 36 37 38 39 40 41 42 43 44 45 46 47 48 49 50
000
ASUS43 KMPX 050810
RWRMN
WEATHER ROUNDUP FOR MINNESOTA
NATIONAL WEATHER SERVICE TWIN CITIES/CHANHASSEN MN
300 AM CDT SUN JUL 05 2015


NOTE: "FAIR" INDICATES FEW OR NO CLOUDS BELOW 12,000 FEET WITH NO
SIGNIFICANT WEATHER AND/OR OBSTRUCTIONS TO VISIBILITY. N/A MEANS
CURRENT SKY AND/OR WEATHER CONDITIONS ARE NOT AVAILABLE.

MNZ060>063-068>070-050900-
   Twin Cities Metro

CITY           SKY/WX    TMP DP  RH WIND       PRES   REMARKS
TWIN CITIES    CLEAR     70  60  70 S7        29.93S
ST PAUL        CLEAR     66  62  87 SE8       29.93
CRYSTAL        CLEAR     70  59  68 S8        29.91R
BLAINE         CLEAR     68  61  77 S8        29.92R
LAKEVILLE      CLEAR     63  59  88 S5        29.94S
EDEN PRAIRIE   CLEAR     68  59  73 S9        29.92R
SOUTH ST PAUL  CLEAR     67  59  74 S7        29.93S
LAKE ELMO      FAIR      64  61  88 S7        29.94S
$$
MNZ001>005-007-008-013>017-022>024-027-028-050900-
   Northwest Minnesota

CITY           SKY/WX    TMP DP  RH WIND       PRES   REMARKS
BEMIDJI        MOCLDY    70  64  81 S5        29.86R
HALLOCK        MOCLDY    66  63  88 SE8       29.74F
ROSEAU         RAIN      64  59  82 E15       29.79F
WARROAD        TSTM      63  59  88 N6        29.84R
THIEF RVR FALL CLOUDY    64  63  94 SE10      29.84F THUNDER
CROOKSTON      RAIN      66  66 100 SE6       29.81F
FOSSTON        CLOUDY    70  63  78 N18G29    29.88R THUNDER
DETROIT LAKES  MOCLDY    72  64  78 S7        29.86R
MOORHEAD       CLOUDY    72  64  78 SE8       29.78F
PARK RAPIDS    MOCLDY    68  63  84 S6        29.87R HAZE
MAHNOMEN       FAIR      71  64  80 S8        29.82S
$$
MNZ006-009>011-018-025>026-050900-
   North Central Minnesota

CITY           SKY/WX    TMP DP  RH WIND       PRES   REMARKS
BAUDETTE       HVY RAIN  63  60  90 N9G17     29.87R FOG
INTL FALLS     CLOUDY    65  60  84 SW5       29.82S
WASKISH        DRIZZLE   64  63  94 E6        29.85S
BIG FORK       MOCLDY    66  63  88 S3        29.87R
LONGVILLE      MOCLDY    68  64  88 S6        29.88R
GRAND RAPIDS   MOCLDY    63  61  94 SE6       29.89R
CRANE LAKE     MOCLDY    64  57  77 S6        29.87F
ORR            MOCLDY    63  55  77 S6        29.86F
COOK           MOCLDY    63  59  88 CALM      29.90R
WALKER         FAIR      69  64  83 S3        29.87R
$$
MNZ012-019>021-037-050900-
   Northeast Minnesota

CITY           SKY/WX    TMP DP  RH WIND       PRES   REMARKS
DULUTH         PTCLDY    57  53  86 SE6       29.92S
ELY            MOCLDY    61  52  72 S3        29.90F
HIBBING        PTCLDY    56  54  93 CALM      29.91R
DULUTH HARBOR  PTCLDY    61  55  82 NE9       29.92S
TWO HARBORS    PTCLDY    57  52  82 CALM      29.90S
SILVER BAY     PTCLDY    55  52  88 CALM      29.91R FOG
GRAND MARAIS     N/A     51  49  92 CALM      29.91R
G MARAIS ARPRT PTCLDY    52  46  82 CALM      29.94F
$$
MNZ029>031-032-039>041-046>048-054>057-064-050900-
   West Central Minnesota

CITY           SKY/WX    TMP DP  RH WIND       PRES   REMARKS
FERGUS FALLS   MOCLDY    70  64  83 SE8       29.82F
WHEATON        MOCLDY    66  63  88 SE7       29.82F
MORRIS         PTCLDY    68  64  88 SE9       29.82F FOG
ALEXANDRIA     PTCLDY    69  63  81 S8        29.88S
ELBOW LAKE     FAIR      68  64  88 S10       29.83F
WADENA         PTCLDY    66  63  88 S5        29.87R FOG
GLENWOOD       MOCLDY    66  63  88 S8        29.88S
APPLETON       MOCLDY    72  63  73 SE6       29.83S
BENSON         MOCLDY    68  61  77 S7        29.85S
ORTONVILLE     MOCLDY    66  63  88 SE6       29.81F
MADISON        MOCLDY    66  63  88 S7        29.83F
WILLMAR        FAIR      66  63  88 SE6       29.89F
$$
MNZ033>034-036-042>043-049>051-058-059-050900-
   Central Minnesota

CITY           SKY/WX    TMP DP  RH WIND       PRES   REMARKS
ST CLOUD       CLEAR     66  62  87 S7        29.90R
SAUK CENTRE    FAIR      64  62  94 SE5       29.89S FOG
PAYNESVILLE    PTCLDY    64  60  86 SE5       29.90F
AITKIN         PTCLDY    70  63  78 S6        29.89R
PINE RIVER     PTCLDY    66  64  94 S5        29.91S FOG
BRAINERD       PTCLDY    65  62  90 S6        29.89S FOG
STAPLES        PTCLDY    66  63  88 S7        29.88R
LONG PRAIRIE   FAIR      64  61  88 S6        29.89S
LITTLE FALLS   PTCLDY    64  61  88 SE5       29.89F FOG
LITCHFIELD     CLEAR     68  63  83 SE3       29.91F
BUFFALO        CLEAR     67  59  73 S8        29.93R
MAPLE LAKE     CLEAR     67  62  84 S3        29.92S
$$
MNZ037-044-045-052-053-050900-
   East Central Minnesota

CITY           SKY/WX    TMP DP  RH WIND       PRES   REMARKS
PRINCETON      CLEAR     68  61  77 S6        29.91S
MORA           PTCLDY    64  59  82 S3        29.92S
CAMBRIDGE      CLEAR     70  57  64 CALM      29.90R
RUSH CITY      CLEAR     65  62  89 S5        29.92R
MOOSE LAKE     CLOUDY    57  55  94 CALM      29.89S FOG
HINCKLEY       FAIR      68  64  88 S6        29.92R FOG
CLOQUET        FOG       57  55  94 CALM      29.92R VSB 1/4
MCGREGOR       CLEAR     63  61  94 CALM      29.92R
$$
MNZ071>073-080-081-089-090-097-098-050900-
   Southwest Minnesota

CITY           SKY/WX    TMP DP  RH WIND       PRES   REMARKS
MONTEVIDEO     MOCLDY    68  63  83 S8        29.85F
GRANITE FALLS  MOCLDY    67  61  81 SE10      29.87F
CANBY          MOCLDY    72  62  71 S12G17    29.83F
MARSHALL       PTCLDY    70  59  68 S12       29.84F
REDWOOD FALLS  MOCLDY    65  60  84 S8        29.88F
OLIVIA         MOCLDY    63  55  77 S8        29.88F
PIPESTONE      CLOUDY    68  61  77 S13       29.88F
WINDOM         PTCLDY    66  61  82 S7        29.92S
WORTHINGTON    PTCLDY    66  57  72 S13       29.92F
JACKSON        PTCLDY    64  61  88 S9        29.94F
TRACY          PTCLDY    68  62  80 S10       29.88F
SLAYTON        MOCLDY    67  62  83 S6        29.91F
$$
MNZ065>067-074>077-082>085-091>093-050900-
   South Central Minnesota

CITY           SKY/WX    TMP DP  RH WIND       PRES   REMARKS
MANKATO        CLEAR     64  57  77 S9        29.94S
NEW ULM        CLEAR     63  61  94 S6        29.91F
ST JAMES       FAIR      64  61  88 SE8       29.92F
FAIRMONT       CLEAR     63  55  77 S10       29.93F
GLENCOE        CLEAR     66  62  86 S5        29.92S
FARIBAULT      CLEAR     66  61  82 S7        29.96R
OWATONNA       CLEAR     66  57  72 S9        29.96S
WASECA         CLEAR     63  57  82 S8        29.97R
ALBERT LEA     CLEAR     66  57  72 S7        29.97S
$$
MNZ078>079-086>088-094>096-050900-
   Southeast Minnesota

CITY           SKY/WX    TMP DP  RH WIND       PRES   REMARKS
ROCHESTER      CLEAR     62  58  86 S8        29.99F
RED WING       CLEAR     70  61  73 S6        29.94S
STANTON        CLEAR     66  59  77 S6        29.93S
DODGE CENTER   PTCLDY    64  61  88 S9        29.97S
WINONA         CLEAR     66  61  82 CALM      29.98S
AUSTIN         CLEAR     64  59  82 S5        29.98S
PRESTON        CLEAR     61  58  88 S5        30.01S
$$
ABBREVIATIONS USED IN REMARKS
   TC - TEMPERATURES IN CELSIUS
  WCI - WIND CHILL INDEX
   HX - HEAT INDEX
  VSB - VISIBILITY
$$



USA.gov is the U.S. government's official web portal to all federal, state and local government web resources and services.